Погода в Ага-Батыре

Россия / Ставропольский край     44°00′27″N   44°48′34″E
темп.,
°C
ветер,
м/с
пор.,
м/с
влажн.,
%
обл.,
%
осадки,
мм/ч
давл.,
гПа
погр.,
м
8 мая, сб
сб800:00+13юз11605 0.0 101811
03:00+12з11685 0.0 101810
06:00+13ю11735 0.0 101830
09:00+20вюв3552100 0.0 1016653
12:00+23вюв674297 0.0 10151507
15:00+24вюв6638100 0.0 10131764
18:00+20вюв5951100 0.0 1013270
21:00+14в486673 0.0 1013198
9 мая, вс
вс900:00+12в36775 0.0 1011121
03:00+10вюв2292100 0.0 101023
06:00+12в1288100 0.0 100979
09:00+18с226593 0.0 1008462
12:00+23ссз43515 0.0 10071216
15:00+16зсз111577100 0.0 1010837
18:00+10зсз111882100 0.4 1014995
21:00+8зсз101788100 3.0 10201155
10 мая, пн
пн1000:00+7з81485100 0.8 1021909
03:00+8зсз9158296 0.8 1020875
06:00+8з61279100 0.0 1021615
09:00+12зсз71152100 0.0 10211766
12:00+16зсз81038100 0.0 10192535
15:00+15зсз783899 0.0 10192225
18:00+14зсз475083 0.0 1020469
21:00+11зюз61060100 0.0 1022312
11 мая, вт
вт1100:00+8з498298 0.0 1021270
03:00+8з2579100 0.0 1021170
06:00+8юз1175100 0.0 102183
09:00+13в575253 0.0 10201245
12:00+15в6848100 0.0 10181981
15:00+15св5757100 0.0 1018821
18:00+14всв6106110 0.0 1018443
21:00+12вюв51057100 0.0 1019369
12 мая, ср
ср1200:00+9вюв34775 0.0 101960
03:00+7вюв33886 0.0 101840
06:00+9в37890 0.0 1019230
09:00+15в57620 0.0 10181103
12:00+19в565054 0.0 10161590
15:00+21в444642 0.0 10151765
18:00+20в225722 0.0 101556
21:00+14в33760 0.0 101642